Location: Buckeye Ditch
(40.9104°N, 122.9517°W)
Time: 14:16:19
(UTC+00:00)

A-11 Canister half - Pass Details

Date: 20 May 2025
Orbit: 1515 x 1684 km, 47.2° (Epoch: 14 June)

Event Time Altitude Azimuth Distance (km) Brightness Sun altitude
Exits shadow 05:57:11 32° 132° (SE) 2,438 9.5 -21.9°
Maximum altitude 05:57:13 32° 132° (SE) 2,438 9.5 -21.9°
Drops below altitude 10° 06:05:08 10° 74° (ENE) 3,710 10.9 -22.7°
Sets 06:08:32 0° 65° (ENE) 4,680 11.5 -23.0°
